Starlink 2563

operational
NORAD ID: 48410 Int'l Des: 2021-038 Owner: SPXS Country: US Constellation: starlink
LEOCIRCULARSTARLINK_TYPE

关于 Starlink 2563

正在加载描述...

实时位置

正在加载3D地球...

即将过境

高度历史

Altitude vs Time

uPlot chart will show altitude changes over time

两行轨道根数

1 48410U 21038BK 25343.31558264 .00011422 00000-0 78439-3 0 9996
2 48410 53.0551 342.3240 0001259 88.8099 271.3034 15.06403239254324
Epoch: Dec 9, 2025 • Age: 12 hours

当前状态

高度 551.2 km
速度 7.59 km/s
星下点 45.73°N, 102.71°E
发射日期 May 4, 2021
运行时间 4.5 years
类型 internet

技术详情

分类 Payload
质量 260.00 kg
干质量 248.00 kg
总质量 260.00 kg
长度 0.20 m
直径 2.80 m
跨度 9.00 m
形状 Box + pan
制造商 SPXS
平台类型 Starlink
阶段状态 In Orbit
所有者/国家 SPXS/US

大型星座

Loading constellations...